Holland, MI

8:27 AM EDT on May 27, 2017 (GMT -0400)
Tulip City

Weather History for KBIV - January, 2013

Change the Weather History Date:

Saturday, January 5, 2013

  Actual Average Record
Temperature  
Mean Temperature 31 °F 27 °F  
Max Temperature 38 °F 33 °F 55 °F (1998)
Min Temperature 24 °F 21 °F -7 °F (1981)
Degree Days  
Heating Degree Days 34 38  
Month to date heating degree days 184 189  
Since 1 July heating degree days 2288 2457  
Cooling Degree Days 0 0  
Month to date cooling degree days 0 0  
Year to date cooling degree days 0 0  
Moisture  
Dew Point 27 °F    
Average Humidity 80    
Maximum Humidity 96    
Minimum Humidity 64    
Precipitation  
Precipitation 0.17 in 0.07 in 0.76 in (1955)
Month to date precipitation 0.17 0.37  
Year to date precipitation 0.17 0.37  
Sea Level Pressure  
Sea Level Pressure 30.12 in    
Wind  
Wind Speed 9 mph (SSW)    
Max Wind Speed 22 mph    
Max Gust Speed 29 mph    
Visibility 7 miles    
Events Rain , Snow    
T = Trace of Precipitation, MM = Missing Value Source: NWS Daily Summary

Daily Weather History Graph

Daily Weather History Graph

Search for Another Location

Airport or City:

Trip Planner

Search our weather history database for the weather conditions in past years. The results will help you decide how hot, cold, wet, or windy it might be!

Date:

Astronomy

Jan. 05, 2013 Rise Set
Actual Time 8:14 AM EST 5:25 PM EST
Civil Twilight 7:43 AM EST 5:57 PM EST
Nautical Twilight 7:07 AM EST 6:32 PM EST
Astronomical Twilight 6:33 AM EST 7:06 PM EST
Moon 1:15 AM EST (1/5) 12:18 PM EST (1/5)
Length of Visible Light 10h 14m
Length of Day
9h 10m
Last Quarter, 44% of the Moon is Illuminated
Jan 5
Last Quarter
Jan 11
New
Jan 18
First Quarter
Jan 26
Full
Feb 3
Last Quarter

Hourly Weather History & Observations

Time (EST) Temp. Windchill Dew Point Humidity Pressure Visibility Wind Dir Wind Speed Gust Speed Precip Events Conditions
12:12 AM 33.8 °F 25.8 °F 26.6 °F 75% 30.18 in 10.0 mi West 10.4 mph - N/A   Mostly Cloudy
12:53 AM 33.1 °F 25.5 °F 26.1 °F 75% 30.20 in 10.0 mi West 9.2 mph - N/A   Mostly Cloudy
1:53 AM 34.0 °F 26.6 °F 26.1 °F 73% 30.21 in 10.0 mi West 9.2 mph - N/A   Mostly Cloudy
2:53 AM 34.0 °F 28.0 °F 26.1 °F 73% 30.23 in 10.0 mi West 6.9 mph - N/A   Mostly Cloudy
3:38 AM 32.0 °F - 24.8 °F 75% 30.20 in 10.0 mi Calm Calm - N/A   Scattered Clouds
3:48 AM 30.2 °F - 24.8 °F 80% 30.20 in 10.0 mi Calm Calm - N/A   Mostly Cloudy
3:53 AM 30.9 °F - 25.0 °F 79% 30.23 in 10.0 mi Calm Calm - N/A   Mostly Cloudy
5:53 AM 26.1 °F 20.5 °F 21.9 °F 84% 30.23 in 9.0 mi South 4.6 mph - N/A   Mostly Cloudy
6:30 AM 26.6 °F 22.6 °F 23.0 °F 86% 30.19 in 9.0 mi SSE 3.5 mph - N/A   Scattered Clouds
6:53 AM 24.1 °F 18.2 °F 21.0 °F 88% 30.22 in 8.0 mi SSE 4.6 mph - N/A   Scattered Clouds
7:00 AM 24.8 °F 20.5 °F 21.2 °F 86% 30.19 in 8.0 mi SSE 3.5 mph - N/A   Mostly Cloudy
7:07 AM 24.8 °F 16.9 °F 21.2 °F 86% 30.18 in 8.0 mi SSE 6.9 mph - N/A   Scattered Clouds
7:39 AM 26.6 °F 19.1 °F 23.0 °F 86% 30.18 in 7.0 mi South 6.9 mph - N/A   Mostly Cloudy
7:53 AM 28.0 °F 20.8 °F 23.0 °F 81% 30.22 in 7.0 mi South 6.9 mph - N/A   Overcast
8:46 AM 26.6 °F 20.0 °F 23.0 °F 86% 30.19 in 5.0 mi SE 5.8 mph - N/A   Scattered Clouds
8:53 AM 27.0 °F 19.5 °F 23.0 °F 85% 30.21 in 5.0 mi SSE 6.9 mph - N/A   Partly Cloudy
9:53 AM 28.0 °F 20.8 °F 23.0 °F 81% 30.21 in 6.0 mi SSE 6.9 mph - N/A   Haze
10:53 AM 32.0 °F 23.6 °F 26.1 °F 79% 30.22 in 8.0 mi South 10.4 mph - N/A   Partly Cloudy
11:07 AM 32.0 °F 23.6 °F 26.6 °F 80% 30.19 in 8.0 mi SSW 10.4 mph - N/A   Mostly Cloudy
11:50 AM 33.8 °F 26.4 °F 24.8 °F 70% 30.16 in 10.0 mi South 9.2 mph - N/A   Scattered Clouds
11:53 AM 33.1 °F 24.9 °F 25.0 °F 72% 30.19 in 10.0 mi South 10.4 mph - N/A   Partly Cloudy
12:53 PM 35.1 °F 27.4 °F 25.0 °F 67% 30.16 in 10.0 mi South 10.4 mph - N/A   Clear
1:53 PM 36.0 °F 29.0 °F 25.0 °F 64% 30.12 in 10.0 mi SSW 9.2 mph - 0.01 in   Clear
2:53 PM 37.9 °F 30.0 °F 26.1 °F 62% 30.07 in 10.0 mi SSW 12.7 mph - N/A   Clear
3:53 PM 37.0 °F 27.7 °F 26.1 °F 65% 30.07 in 10.0 mi SSW 16.1 mph - N/A   Partly Cloudy
4:53 PM 37.0 °F 28.1 °F 27.0 °F 67% 30.07 in 10.0 mi SW 15.0 mph 21.9 mph N/A   Overcast
5:53 PM 36.0 °F 27.1 °F 30.0 °F 79% 30.05 in 5.0 mi SW 13.8 mph - 0.00 in Snow Light Snow
6:53 PM 36.0 °F 27.5 °F 32.0 °F 86% 30.05 in 7.0 mi SW 12.7 mph - 0.02 in Rain Light Rain
7:10 PM 35.6 °F 27.5 °F 32.0 °F 87% 30.02 in 2.5 mi SW 11.5 mph - 0.02 in Snow Light Snow
7:31 PM 35.6 °F 28.6 °F 32.0 °F 87% 30.01 in 3.0 mi SSW 9.2 mph - 0.04 in Snow Light Snow
7:53 PM 34.0 °F 27.2 °F 32.0 °F 92% 30.04 in 3.0 mi South 8.1 mph - 0.04 in Snow Light Snow
8:03 PM 33.8 °F 25.8 °F 32.0 °F 93% 30.01 in 2.5 mi South 10.4 mph - 0.00 in Snow Light Snow
8:15 PM 33.8 °F 25.8 °F 32.0 °F 93% 30.01 in 1.8 mi South 10.4 mph - 0.00 in Snow Light Snow
8:53 PM 34.0 °F 26.0 °F 32.0 °F 92% 30.02 in 1.5 mi South 10.4 mph - 0.02 in Snow Light Snow
9:53 PM 35.1 °F 26.4 °F 32.0 °F 89% 30.01 in 2.0 mi South 12.7 mph - 0.00 in Snow Light Snow
10:06 PM 35.6 °F 26.6 °F 30.2 °F 81% 29.98 in 3.0 mi SSW 13.8 mph - 0.01 in Snow Light Snow
10:14 PM 35.6 °F 26.2 °F 30.2 °F 81% 29.98 in 2.0 mi SSW 15.0 mph - 0.02 in Snow Light Snow
10:38 PM 35.6 °F 27.1 °F 32.0 °F 87% 29.97 in 3.0 mi SSW 12.7 mph - 0.02 in Snow Light Snow
10:53 PM 35.1 °F 26.4 °F 32.0 °F 89% 29.99 in 3.0 mi SSW 12.7 mph - 0.04 in Snow Light Snow
11:46 PM 37.4 °F 27.8 °F 32.0 °F 81% 29.95 in 10.0 mi SW 17.3 mph - 0.04 in   Overcast
11:53 PM 37.0 °F 26.2 °F 32.0 °F 82% 29.97 in 10.0 mi SW 21.9 mph 26.5 mph 0.04 in   Overcast